Regional Weather Roundup
Issued by NWS

Home | Current Version | Previous Version | Graphics & Text | Print | Product List | Glossary Off
Versions: 1 2 3 4 5 6 7 8 9 10 11 12 13 14 15 16 17 18 19 20 21 22 23 24 25 26 27 28 29 30 31 32 33 34 35 36 37 38 39 40 41 42 43 44 45 46 47 48 49 50

202
ASUS43 KTOP 271859
RWRKS

WEATHER ROUNDUP FOR KANSAS
NATIONAL WEATHER SERVICE GOODLAND KS
100 PM CST MON FEB 27 2017

NOTE:  "FAIR" INDICATES FEW OR NO CLOUDS BELOW 12,000 FEET WITH NO
SIGNIFICANT WEATHER AND/OR OBSTRUCTIONS TO VISIBILITY.

KSZ001>006-013>018-027>032-041>047-272000-
NORTHWEST KANSAS

CITY           SKY/WX    TMP DP  RH WIND       PRES   REMARKS
GOODLAND       SUNNY     56  11  16 SW15G23   29.67F
HAYS           SUNNY     57  32  38 S16G23    29.74F
HILL CITY      SUNNY     54  27  35 SW10G17   29.75F
RUSSELL        SUNNY     55  38  52 SE22G30   29.75F
$$

KSZ061>065-074>080-084>089-272000-
SOUTHWEST KANSAS

CITY           SKY/WX    TMP DP  RH WIND       PRES   REMARKS
DODGE CITY     SUNNY     61  26  26 S22G29    29.76F
ELKHART          N/A     59  20  22 SW14        N/A
GARDEN CITY    SUNNY     59  16  18 SW16      29.74F
GREAT BEND     SUNNY     58  39  49 S16       29.76F
LIBERAL        SUNNY     63  25  23 SW22G29   29.77F
$$

KSZ066>073-081>083-090>101-272000-
SOUTHEAST KANSAS

CITY           SKY/WX    TMP DP  RH WIND       PRES   REMARKS
CHANUTE        CLOUDY    62  41  46 SE16      29.91F
COFFEYVILLE    CLOUDY    61  45  55 S15       29.93F
HUTCHINSON     CLOUDY    49  45  86 S12       29.83F FOG
MEDICINE LODGE   N/A     47  43  86 SE8       29.83F
NEWTON         CLOUDY    55  45  68 SE18      29.85F
PARSONS        CLOUDY    62  43  49 S9        29.92F
WICHITA INTL   CLOUDY    56  46  69 S20       29.85F
WICHITA JABRA  CLOUDY    56  45  66 SE18G25   29.86F
WINFIELD       CLOUDY    55  46  71 S15       29.90F
$$

KSZ007>012-019>026-033>040-048>060-102>105-272000-
NORTHEAST KANSAS

CITY           SKY/WX    TMP DP  RH WIND       PRES   REMARKS
CONCORDIA      CLOUDY    55  38  52 SE23G32   29.81F
EMPORIA        CLOUDY    59  39  47 SE17G25   29.88F
LAWRENCE         N/A    N/A N/A N/A MISG      29.93F
MANHATTAN      CLOUDY    56  38  50 S16       29.88F
OLATHE IND     MOSUNNY   58  35  42 SE16      29.95F
OLATHE EXE     SUNNY     57  37  47 SE15      29.94F
SALINA         CLOUDY    56  43  61 S22       29.84F
TOPEKA BILLARD CLOUDY    56  37  49 SE20      29.91F
TOPEKA FORBES  PTSUNNY   58  36  43 SE20G26   29.91F
$$




USA.gov is the U.S. government's official web portal to all federal, state and local government web resources and services.